EW7397 Weather Reports


time (UTC)temp
F
wind
direction
speed
knots
gust
knots
rain 1hr
in
rain 24hr
in
rain mn
in
humidity
%
barometer
mb
20260506212505 57 322 0.9 2.6 0.00 0.02 0.02 88 1011.8
20260506212004 56 322 0.9 4.3 0.00 0.02 0.02 88 1011.6
20260506211505 56 319 0.9 4.3 0.00 0.02 0.02 88 1011.6
20260506211003 56 314 0.0 1.7 0.00 0.02 0.02 88 1011.8
20260506210505 56 314 0.0 0.9 0.00 0.02 0.02 86 1011.6
20260506210004 56 314 0.0 1.7 0.00 0.02 0.02 86 1011.5
20260506205712 56 314 0.0 1.7 0.00 0.02 0.02 86 1011.5
20260506205003 57 314 0.0 2.6 0.00 0.02 0.02 86 1011.4
20260506204503 57 314 0.0 2.6 0.00 0.02 0.02 86 1011.4
20260506204005 57 314 0.0 1.7 0.00 0.02 0.02 86 1011.2
20260506203503 57 314 0.9 1.7 0.00 0.02 0.02 85 1011.1
20260506203211 57 314 0.9 1.7 0.00 0.02 0.02 86 1011.2
20260506202505 57 314 0.0 2.6 0.00 0.02 0.02 86 1011.3
20260506202003 57 315 0.0 2.6 0.00 0.02 0.02 86 1011.3
20260506201710 57 315 0.0 1.7 0.00 0.02 0.02 85 1011.3
20260506201005 57 315 0.0 1.7 0.00 0.02 0.02 86 1011.3
20260506200503 57 315 0.0 1.7 0.00 0.02 0.02 85 1011.2
20260506200213 57 315 0.0 1.7 0.00 0.02 0.02 85 1011.3
20260506195503 57 315 0.0 1.7 0.00 0.02 0.02 85 1011.3
20260506195003 57 0 0.0 0.0 0.00 0.02 0.02 85 1011.2
20260506194505 57 315 0.0 0.9 0.00 0.02 0.02 84 1011.1
20260506194003 58 315 0.0 0.9 0.00 0.02 0.02 84 1011.2
20260506193503 58 315 0.0 2.6 0.00 0.02 0.02 84 1011.2
20260506193005 58 315 0.9 2.6 0.00 0.02 0.02 83 1011.3
20260506192710 58 315 0.0 1.7 0.00 0.02 0.02 83 1011.2
20260506192003 58 315 0.0 1.7 0.00 0.02 0.02 83 1011.3
20260506191505 58 315 0.0 1.7 0.00 0.02 0.02 82 1011.0
20260506191210 58 0 0.0 0.0 0.00 0.02 0.02 82 1010.8
20260506190712 59 315 0.0 0.9 0.00 0.02 0.02 81 1010.9
20260506190005 59 315 0.0 0.9 0.00 0.02 0.02 81 1010.9
20260506185505 59 315 0.9 1.7 0.00 0.02 0.02 81 1010.8
20260506185003 59 315 0.9 2.6 0.00 0.02 0.02 81 1010.6
20260506184503 60 315 0.9 2.6 0.00 0.02 0.02 81 1010.6
20260506184005 60 321 0.9 3.5 0.00 0.02 0.02 81 1010.7
20260506183503 60 326 0.0 3.5 0.00 0.02 0.02 81 1010.6
20260506183004 60 342 0.0 2.6 0.00 0.02 0.02 80 1010.5
20260506182503 61 342 0.0 2.6 0.00 0.02 0.02 80 1010.5
20260506182210 61 342 0.9 1.7 0.00 0.02 0.02 80 1010.4
20260506181505 61 342 0.9 2.6 0.00 0.02 0.02 80 1010.3
20260506181003 62 342 0.9 2.6 0.00 0.02 0.02 80 1010.3
20260506180503 62 342 0.9 2.6 0.00 0.02 0.02 79 1010.3
20260506180006 62 342 1.7 2.6 0.00 0.02 0.02 79 1010.3
20260506175503 62 335 1.7 3.5 0.00 0.02 0.02 78 1010.3
20260506175003 63 303 0.9 3.5 0.00 0.02 0.02 77 1010.4
20260506174712 63 276 0.9 4.3 0.00 0.02 0.02 77 1010.3
20260506174003 64 273 1.7 4.3 0.00 0.02 0.02 76 1010.3
20260506173505 64 281 1.7 6.1 0.00 0.02 0.02 75 1010.2
20260506173003 64 262 0.9 6.1 0.00 0.02 0.02 74 1010.3
20260506172505 64 250 0.9 2.6 0.00 0.02 0.02 74 1010.1
20260506172003 64 243 1.7 3.5 0.00 0.02 0.02 73 1010.2
20260506171505 65 248 1.7 4.3 0.00 0.02 0.02 73 1010.2
20260506171003 65 256 0.9 4.3 0.00 0.02 0.02 73 1010.2
20260506170503 65 241 0.9 4.3 0.00 0.02 0.02 74 1010.2
20260506170005 65 244 1.7 3.5 0.00 0.02 0.02 74 1010.3
20260506165710 65 238 1.7 7.0 0.00 0.02 0.02 73 1010.1
20260506165003 65 250 0.9 7.0 0.00 0.02 0.02 74 1010.2
20260506164505 65 280 0.9 4.3 0.00 0.02 0.02 74 1010.3
20260506164003 65 273 1.7 4.3 0.00 0.02 0.02 74 1010.3
20260506163503 65 307 2.6 6.1 0.00 0.02 0.02 75 1010.3
20260506163005 65 255 2.6 7.8 0.00 0.02 0.02 74 1010.3
20260506162503 65 246 1.7 7.8 0.00 0.02 0.02 76 1010.4
20260506162005 64 267 0.9 7.0 0.00 0.02 0.02 76 1010.3
20260506161711 64 293 0.9 3.5 0.00 0.02 0.02 79 1010.3
20260506161003 64 328 0.9 1.7 0.00 0.02 0.02 82 1010.4
20260506160505 64 322 0.9 2.6 0.00 0.02 0.02 83 1010.3
20260506160004 64 319 1.7 2.6 0.00 0.02 0.02 83 1010.3
20260506155503 64 315 1.7 3.5 0.00 0.02 0.02 82 1010.5
20260506155005 64 315 0.9 3.5 0.00 0.02 0.02 82 1010.5
20260506154503 64 315 0.0 2.6 0.00 0.02 0.02 82 1010.5
20260506154003 64 315 0.0 1.7 0.00 0.02 0.02 81 1010.7
20260506153503 64 315 0.0 1.7 0.00 0.02 0.02 81 1010.6
20260506153210 64 315 0.9 1.7 0.00 0.02 0.02 81 1010.6
20260506152505 64 318 0.9 2.6 0.00 0.02 0.02 80 1010.6
20260506152003 64 319 0.9 2.6 0.00 0.02 0.02 80 1010.5
20260506151712 64 321 0.9 2.6 0.00 0.02 0.02 79 1010.6
20260506151003 64 323 0.9 2.6 0.00 0.02 0.02 80 1010.6
20260506150503 64 324 0.9 2.6 0.00 0.02 0.02 79 1010.6
20260506150006 64 324 0.9 1.7 0.00 0.02 0.02 80 1010.5
20260506145503 64 308 0.9 3.5 0.00 0.02 0.02 80 1010.5
20260506145003 64 288 0.9 3.5 0.00 0.02 0.02 80 1010.6
20260506144505 64 260 0.0 1.7 0.00 0.02 0.02 80 1010.6
20260506144003 64 255 0.0 1.7 0.00 0.02 0.02 79 1010.5
20260506143505 64 255 0.0 0.9 0.00 0.02 0.02 79 1010.6
20260506143003 64 252 0.9 1.7 0.00 0.02 0.02 79 1010.6
20260506142505 64 251 0.9 1.7 0.00 0.02 0.02 79 1010.7
20260506142210 64 251 0.9 1.7 0.00 0.02 0.02 79 1010.7
20260506141503 64 263 1.7 5.2 0.00 0.02 0.02 78 1010.8
20260506141212 64 271 1.7 5.2 0.00 0.02 0.02 78 1010.7
20260506140503 64 282 0.9 3.5 0.00 0.02 0.02 77 1010.9
20260506140005 64 277 0.9 2.6 0.00 0.02 0.02 78 1010.8
20260506135712 63 274 0.9 2.6 0.00 0.02 0.02 80 1011.0
20260506135210 63 273 0.9 2.6 0.00 0.02 0.02 81 1010.8
20260506134503 63 273 0.9 2.6 0.00 0.02 0.02 80 1010.9
20260506134211 63 271 0.9 2.6 0.00 0.02 0.02 80 1010.9
20260506133505 63 266 0.9 2.6 0.00 0.02 0.02 80 1011.0
20260506133210 63 269 0.9 2.6 0.00 0.02 0.02 80 1011.1
20260506132505 63 282 0.9 2.6 0.00 0.02 0.02 80 1011.1
20260506132003 63 284 0.0 1.7 0.00 0.02 0.02 80 1011.2
20260506131503 63 284 0.0 1.7 0.00 0.02 0.02 79 1011.3
20260506131212 63 284 0.0 0.9 0.00 0.02 0.02 78 1011.3
20260506130503 63 281 0.0 1.7 0.00 0.02 0.02 77 1011.4
20260506130005 63 280 0.0 1.7 0.00 0.02 0.02 77 1011.4
20260506125505 63 274 0.0 0.9 0.00 0.02 0.02 77 1011.5
20260506125003 63 274 0.0 0.9 0.00 0.02 0.02 79 1011.6
20260506124505 63 274 0.9 1.7 0.00 0.02 0.02 80 1011.5
20260506124003 63 274 0.9 2.6 0.00 0.02 0.02 78 1011.7
20260506123503 63 274 0.9 2.6 0.00 0.02 0.02 79 1011.8
20260506123005 63 274 0.9 2.6 0.00 0.02 0.02 78 1011.7
20260506122503 63 264 0.9 2.6 0.00 0.02 0.02 77 1011.7
20260506122003 62 248 0.9 3.5 0.00 0.02 0.02 77 1011.8
20260506121505 62 199 0.9 3.5 0.00 0.02 0.02 79 1011.7
20260506121003 62 203 0.9 2.6 0.00 0.02 0.02 80 1011.8
20260506120503 62 284 0.9 2.6 0.00 0.02 0.02 81 1011.8
20260506120005 62 275 0.9 2.6 0.00 0.02 0.02 80 1011.8
20260506115712 62 270 1.7 2.6 0.00 0.02 0.02 80 1011.8
20260506115210 62 269 1.7 3.5 0.00 0.02 0.02 79 1011.9
20260506114505 62 258 1.7 5.2 0.00 0.02 0.02 80 1012.1
20260506114003 62 258 1.7 3.5 0.00 0.02 0.02 80 1012.1
20260506113505 62 270 0.9 3.5 0.00 0.02 0.02 80 1012.0
20260506113003 62 282 0.9 3.5 0.00 0.02 0.02 81 1012.2
20260506112503 62 335 0.9 2.6 0.02 0.02 0.02 82 1012.3
20260506112005 61 309 0.9 2.6 0.02 0.02 0.02 82 1012.3
20260506111503 61 259 1.7 2.6 0.02 0.02 0.02 83 1012.3
20260506111211 62 257 1.7 2.6 0.02 0.02 0.02 81 1012.4
20260506110710 62 267 2.6 2.6 0.02 0.02 0.02 82 1012.4
20260506110211 62 269 2.6 6.1 0.02 0.02 0.02 80 1012.3
20260506105505 62 274 2.6 7.0 0.02 0.02 0.02 79 1012.5
20260506105004 62 278 1.7 7.0 0.02 0.02 0.02 79 1012.6
20260506104712 63 285 1.7 6.1 0.02 0.02 0.02 79 1012.6
20260506104210 63 308 1.7 3.5 0.02 0.02 0.02 80 1012.6
20260506103712 63 297 1.7 3.5 0.02 0.02 0.02 79 1012.5
20260506103003 63 295 1.7 3.5 0.02 0.02 0.02 78 1012.7
20260506102505 64 289 1.7 4.3 0.01 0.01 0.02 77 1012.7
20260506102003 64 262 1.7 4.3 0.00 0.00 0.00 76 1012.8
20260506101503 64 261 2.6 6.1 0.00 0.00 0.00 75 1012.9
20260506101005 64 273 3.5 7.0 0.00 0.00 0.00 74 1012.7
20260506100503 64 268 4.3 7.8 0.00 0.00 0.00 73 1012.7
20260506100005 64 271 4.3 11.3 0.00 0.00 0.00 72 1012.6
20260506095503 64 272 4.3 11.3 0.00 0.00 0.00 71 1012.5
20260506095212 65 266 4.3 11.3 0.00 0.00 0.00 71 1012.6
20260506094503 65 253 3.5 8.7 0.00 0.00 0.00 71 1012.7
20260506094005 65 249 2.6 8.7 0.00 0.00 0.00 71 1012.6
20260506093503 65 238 2.6 7.8 0.00 0.00 0.00 71 1012.6
20260506093003 65 249 2.6 7.8 0.00 0.00 0.00 71 1012.7
20260506092505 66 257 3.5 7.8 0.00 0.00 0.00 71 1012.5
20260506092003 66 270 2.6 7.8 0.00 0.00 0.00 71 1012.4
20260506091710 66 276 2.6 7.8 0.00 0.00 0.00 71 1012.5
20260506091212 66 266 2.6 7.8 0.00 0.00 0.00 71 1012.5
20260506090503 67 225 1.7 5.2 0.00 0.00 0.00 73 1012.2
20260506090006 67 227 1.7 6.1 0.00 0.00 0.00 72 1012.1
20260506085503 67 213 2.6 6.1 0.00 0.00 0.00 73 1012.0
20260506085005 67 227 2.6 7.0 0.00 0.00 0.00 72 1012.0
20260506084503 66 230 1.7 8.7 0.00 0.00 0.00 73 1012.0
20260506084005 66 246 1.7 8.7 0.00 0.00 0.00 72 1011.9
20260506083503 66 272 2.6 5.2 0.00 0.00 0.00 71 1011.8
20260506083005 66 248 2.6 5.2 0.00 0.00 0.00 72 1011.8
20260506082710 66 235 2.6 5.2 0.00 0.00 0.00 71 1011.6
20260506082003 66 290 2.6 8.7 0.00 0.00 0.00 74 1011.6
20260506081712 66 324 2.6 8.7 0.00 0.00 0.00 72 1011.6
20260506081003 65 269 3.5 5.2 0.00 0.00 0.00 73 1011.6
20260506080505 65 274 3.5 7.8 0.00 0.00 0.00 74 1011.8
20260506073505 63 210 1.7 5.2 0.00 0.00 0.00 77 1012.0
20260506073003 63 33 1.7 4.3 0.00 0.00 0.00 77 1012.1
20260506072503 62 27 1.7 4.3 0.00 0.00 0.00 76 1012.1
20260506072005 62 36 1.7 3.5 0.00 0.00 0.00 77 1012.0
20260506071503 62 40 1.7 4.3 0.00 0.00 0.00 77 1012.3
20260506071005 61 38 1.7 4.3 0.00 0.00 0.00 77 1012.3
20260506070710 61 38 0.9 4.3 0.00 0.00 0.00 78 1012.3
20260506062503 57 42 0.0 0.9 0.00 0.00 0.00 84 1012.5
20260506062003 57 0 0.0 0.0 0.00 0.00 0.00 85 1012.4
20260506061712 57 0 0.0 0.0 0.00 0.00 0.00 85 1012.4
20260506061212 56 0 0.0 0.0 0.00 0.00 0.00 85 1012.4
20260506060503 56 42 0.0 0.9 0.00 0.00 0.00 85 1012.4
20260506060215 56 42 0.0 0.9 0.00 0.00 0.00 85 1012.4
20260506051005 54 317 0.9 1.7 0.00 0.00 0.00 87 1012.3
20260506050710 54 313 0.9 1.7 0.00 0.00 0.00 87 1012.3
20260506045003 54 305 0.0 0.9 0.00 0.00 0.00 87 1012.2
20260506044505 54 0 0.0 0.0 0.00 0.00 0.00 87 1012.1
20260506044003 54 0 0.0 0.0 0.00 0.00 0.00 88 1012.1
20260506043503 54 307 0.0 0.9 0.00 0.00 0.00 88 1012.2
20260506043005 54 307 0.0 0.9 0.00 0.00 0.00 88 1012.3
20260506042503 54 0 0.0 0.0 0.00 0.00 0.00 88 1012.2
20260506042212 53 0 0.0 0.0 0.00 0.00 0.00 88 1012.2
20260506041503 53 307 0.0 0.9 0.00 0.00 0.00 88 1012.2
20260506041005 53 307 0.0 0.9 0.00 0.00 0.00 88 1012.2
20260506040504 53 0 0.0 0.0 0.00 0.00 0.00 87 1012.2
20260506040006 53 0 0.0 0.0 0.00 0.00 0.00 87 1012.2
20260506035503 53 0 0.0 0.0 0.00 0.00 0.00 87 1012.1
20260506035005 53 308 0.0 1.7 0.00 0.00 0.00 88 1012.2
20260506034503 53 308 0.0 1.7 0.00 0.00 0.00 87 1012.2
20260506034003 53 308 0.0 0.9 0.00 0.00 0.00 88 1012.1
20260506033505 53 308 0.0 0.9 0.00 0.00 0.00 87 1012.1
20260506033004 53 0 0.0 0.0 0.00 0.00 0.00 87 1012.2
20260506032505 53 308 0.0 0.9 0.00 0.00 0.00 87 1012.2
20260506032003 53 308 0.0 1.7 0.00 0.00 0.00 87 1012.3
20260506031712 53 308 0.0 1.7 0.00 0.00 0.00 88 1012.3
20260506031003 53 308 0.0 0.9 0.00 0.00 0.00 87 1012.4
20260506030503 53 308 0.0 0.9 0.00 0.00 0.00 87 1012.4
20260506030006 53 308 0.0 0.9 0.00 0.00 0.00 87 1012.4
20260506025503 53 308 0.0 0.9 0.00 0.00 0.00 86 1012.5
20260506025004 53 307 0.0 0.9 0.00 0.00 0.00 87 1012.4
20260506024505 53 307 0.0 0.9 0.00 0.00 0.00 86 1012.3
20260506024211 53 307 0.9 1.7 0.00 0.00 0.00 87 1012.4
20260506023503 53 307 0.0 1.7 0.00 0.00 0.00 87 1012.4
20260506023005 53 307 0.0 1.7 0.00 0.00 0.00 86 1012.6
20260506022710 53 307 0.0 1.7 0.00 0.00 0.00 86 1012.6
20260506022005 53 308 0.0 0.9 0.00 0.00 0.00 86 1012.5
20260506021503 53 308 0.0 0.9 0.00 0.00 0.00 86 1012.6
20260506021003 53 308 0.0 0.9 0.00 0.00 0.00 86 1012.5
20260506020505 53 308 0.0 0.9 0.00 0.00 0.00 86 1012.4
20260506020004 53 308 0.0 0.9 0.00 0.00 0.00 86 1012.4
20260506015505 53 308 0.0 0.9 0.00 0.00 0.00 86 1012.5
20260506015003 53 308 0.9 0.9 0.00 0.00 0.00 86 1012.4
20260506014503 53 308 0.9 1.7 0.00 0.00 0.00 86 1012.4
20260506014005 53 307 0.9 1.7 0.00 0.00 0.00 86 1012.2
20260506013503 53 306 0.9 1.7 0.00 0.00 0.00 86 1012.4
20260506013005 53 306 0.0 1.7 0.00 0.00 0.00 86 1012.3
20260506012505 53 306 0.0 0.9 0.00 0.00 0.00 85 1012.3
20260506012003 53 306 0.0 0.9 0.00 0.00 0.00 87 1012.3
20260506011505 53 306 0.0 1.7 0.00 0.00 0.00 86 1012.4
20260506011003 52 306 0.0 1.7 0.00 0.00 0.00 86 1012.4
20260506010506 52 0 0.0 0.0 0.00 0.00 0.00 87 1012.4
20260506010004 52 0 0.0 0.0 0.00 0.00 0.00 85 1012.4
20260506005505 52 0 0.0 0.0 0.00 0.00 0.00 86 1012.4
20260506005003 52 0 0.0 0.0 0.00 0.00 0.00 87 1012.5
20260506004711 52 306 0.9 1.7 0.00 0.00 0.00 87 1012.4
20260506004005 52 305 0.0 1.7 0.00 0.00 0.00 86 1012.4
20260506003710 52 305 0.0 1.7 0.00 0.00 0.00 87 1012.4
20260506003003 51 0 0.0 0.0 0.00 0.00 0.00 85 1012.4
20260506002505 52 0 0.0 0.0 0.00 0.00 0.00 85 1012.3
20260506002003 51 0 0.0 0.0 0.00 0.00 0.00 85 1012.3
20260506001505 51 0 0.0 0.0 0.00 0.00 0.00 84 1012.4
20260506001003 51 304 0.0 1.7 0.00 0.00 0.00 84 1012.4
20260506000503 51 304 0.0 1.7 0.00 0.00 0.00 86 1012.4
20260506000006 51 304 0.0 0.9 0.00 0.00 0.00 84 1012.5
20260505235503 52 304 0.0 0.9 0.00 0.00 0.00 83 1012.5
20260505235003 52 304 0.0 0.9 0.00 0.00 0.00 83 1012.5
20260505234505 52 304 0.9 1.7 0.00 0.00 0.00 82 1012.6
20260505234003 52 304 0.0 2.6 0.00 0.00 0.00 83 1012.6
20260505233505 52 304 0.0 2.6 0.00 0.00 0.00 82 1012.8
20260505233003 53 304 0.0 1.7 0.00 0.00 0.00 82 1012.6
20260505232505 53 304 0.0 1.7 0.00 0.00 0.00 81 1012.7
20260505232211 53 304 0.0 1.7 0.00 0.00 0.00 81 1012.8
20260505231505 53 304 0.9 1.7 0.00 0.00 0.00 81 1012.8
20260505231003 54 293 0.9 2.6 0.00 0.00 0.00 80 1012.8
20260505230503 54 275 0.0 2.6 0.00 0.00 0.00 80 1012.7
20260505230213 54 261 0.0 2.6 0.00 0.00 0.00 80 1012.8
20260505225504 54 276 0.9 2.6 0.00 0.00 0.00 79 1012.8
20260505225003 55 280 0.9 2.6 0.00 0.00 0.00 78 1012.8
20260505224505 55 265 0.0 2.6 0.00 0.00 0.00 79 1012.8
20260505224003 56 196 0.0 1.7 0.00 0.00 0.00 77 1012.8
20260505223505 56 200 0.0 2.6 0.00 0.00 0.00 77 1012.7
20260505223003 56 212 0.0 2.6 0.00 0.00 0.00 77 1012.9
20260505222505 56 5 0.9 1.7 0.00 0.00 0.00 77 1012.8
20260505222003 57 354 0.9 1.7 0.00 0.00 0.00 77 1012.8
20260505221505 57 288 0.9 1.7 0.00 0.00 0.00 77 1012.8
20260505221003 57 256 0.9 2.6 0.00 0.00 0.00 76 1012.7
20260505220503 57 262 0.9 2.6 0.00 0.00 0.00 77 1012.7
20260505220341 57 265 0.9 2.6 0.00 0.00 0.00 76 1012.7
20260505215503 57 286 1.7 5.2 0.00 0.00 0.00 76 1012.8
20260505215003 57 310 1.7 5.2 0.00 0.00 0.00 76 1012.8
20260505214503 58 320 1.7 4.3 0.00 0.00 0.00 76 1012.8
20260505214005 58 324 0.9 4.3 0.00 0.00 0.00 76 1012.9
20260505213503 58 347 0.9 3.5 0.00 0.00 0.00 76 1012.9
20260505213003 58 321 0.9 2.6 0.00 0.00 0.00 76 1012.9